Voltar ao catálogo

STARLINK-2081

AtivoComunicaçõesVLEO
NORAD 47366·PAYLOAD·🇺🇸 United States

Lançado Jan 20, 2021 de Cape Canaveral Space Force Station

Loading…

Próximas Passagens (próximas 24 horas)

TLE

AtualizadoSource: CelesTrak SupGP

Época: Sep 15, 2026, 02:17 UTC

1 47366C 21005T   26258.09562500 -.00012032  00000+0 -38699-3 0  2589
2 47366  53.1594 261.1371 0001265 101.4901 322.2384 15.31701807    14

Acompanhe STARLINK-2081 em tempo real com AllMySat

Download on the App Store